Regional Weather Roundup
Issued by NWS Northern Indiana

Home | Current Version | Previous Version | Text Only | Print | Product List | Glossary On
Versions: 1 2 3 4 5 6 7 8 9 10 11 12 13 14 15 16 17 18 19 20 21 22 23 24 25 26 27 28 29 30 31 32 33 34 35 36 37 38 39 40 41 42 43 44 45 46 47 48 49 50
000
ASUS43 KIWX 082100
RWRIWX

KIWX WEATHER ROUNDUP
NATIONAL WEATHER SERVICE NORTHERN INDIANA
400 PM EST THU DEC 08 2016

NOTE: "FAIR" INDICATES FEW OR NO CLOUDS BELOW 12,000 FEET WITH NO
SIGNIFICANT WEATHER AND/OR OBSTRUCTIONS TO VISIBILITY.

* THESE STATIONS ARE NOT UNDER NWS QUALITY CONTROL. THEY ALSO MAY NOT
  REPORT WEATHER SUCH AS PRECIPITATION OR FOG.

INZ001>027-082200-
NORTHERN INDIANA

CITY           SKY/WX    TMP DP  RH WIND       PRES   REMARKS
SOUTH BEND     LGT SNOW  20  15  81 W13       30.28R WCI   7
ELKHART*       LGT SNOW  21  16  79 W13       30.26R WCI   9
GOSHEN         FLURRIES  21  13  71 W16G25    30.27R WCI   7
MONTICELLO*    CLOUDY    21  10  63 W18       30.35R WCI   6
ANGOLA*        CLOUDY    19  16  86 W14       30.22R WCI   6
FORT WAYNE     FLURRIES  21  13  71 W17G25    30.29R WCI   7
PERU/GRISSOM   FLURRIES  21  13  71 W21       30.30R WCI   5

$$
INZ028>050-082200-
CENTRAL INDIANA

CITY           SKY/WX    TMP DP  RH WIND       PRES   REMARKS
LAFAYETTE      CLOUDY    21  13  71 W14       30.37R WCI   8
KOKOMO*        FLURRIES  21  15  78 W23       30.33R WCI   5
MUNCIE*        CLOUDY    24  14  65 W16G26    30.30R WCI  11
INDIANAPOLIS   FLURRIES  23  14  68 W17       30.36R WCI   9

$$
MIZ043>046-050>051-056>058-064>065-071>073-077>080-082200-
SOUTHWEST LOWER MICHIGAN

CITY           SKY/WX    TMP DP  RH WIND       PRES   REMARKS
BATTLE CREEK   LGT SNOW  24  21  88 W13       30.18R FOG     WCI  12
BENTON HARBOR  LGT SNOW  26  18  71 W16G24    30.26R WCI  14
COLDWATER*     LGT SNOW  22  19  88 SW13G18   30.20R WCI   9
HILLSDALE*     LGT SNOW  21  19  93 W13G20    30.16R WCI   9
HOLLAND        FLURRIES  28  21  75 W14G23    30.19R WCI  17
GRAND RAPIDS   LGT SNOW  26  21  81 W14       30.17R WCI  14
KALAMAZOO      LGT SNOW  24  19  81 SW10      30.20R WCI  14
STURGIS*       LGT SNOW  20  17  85 W12       30.22R WCI   8
THREE RIVERS*  LGT SNOW  23  19  85 W6        30.23R WCI  15

$$
OHZ001>008-015>018-024>025-082200-
NORTHWEST OHIO

CITY           SKY/WX    TMP DP  RH WIND       PRES   REMARKS
DEFIANCE       FLURRIES  24  13  62 W12G20    30.26R WCI  13
FINDLAY        CLOUDY    25  12  58 W21G28    30.24R WCI  11
TOLEDO EXPRESS CLOUDY    23  17  78 W23       30.21R WCI   7
TOLEDO METCALF FLURRIES  25  17  72 W23G30    30.22R WCI  10
LIMA           FLURRIES  23  16  74 W21       30.25R WCI   8

$$
AND FOR LAKE MICHIGAN COASTAL AND OPEN LAKE BUOY OBSERVATIONS

STATION/POSITION TEMP    WIND        PRES    VSBY  WAVE
                 AIR SEA DIR/SP/G                  HT/PER
                 (F)     (DEG/KT/KT) (MB)    (MI)  (FT/S)
CALUMET HARBOR    20     260/ 11/ 19 1026.1R
BURNS HARBOR      22     270/ 23/ 30 1026.8R
SAINT JOSEPH      28     270/ 18/ 25 1024.0

$$
&&




USA.gov is the U.S. government's official web portal to all federal, state and local government web resources and services.